Regional Weather Roundup
Issued by NWS Charleston, WV

Home | Current Version | Previous Version | Graphics & Text | Print | Product List | Glossary On
Versions: 1 2 3 4 5 6 7 8 9 10 11 12 13 14 15 16 17 18 19 20 21 22 23 24 25 26 27 28 29 30 31 32 33 34 35 36 37 38 39 40 41 42 43 44 45 46 47 48 49 50
000
ASUS41 KRLX 170110
RWRRLX
West Virginia Regional Weather Roundup
National Weather Service Charleston WV
Issued by National Weather Service Pittsburgh PA
800 PM EST THU NOV 16 2017

Note: "fair" indicates few or no clouds below 12,000 feet with no
significant weather and/or obstructions to visibility.

WVZ003-170200-
Northern Panhandle of West Virginia

CITY           SKY/WX    TMP DP  RH WIND       PRES   REMARKS
WHEELING       CLOUDY    37  29  72 W8        30.17R
$$

WVZ009-170200-
Northwest West Virginia

CITY           SKY/WX    TMP DP  RH WIND       PRES   REMARKS
PARKERSBURG    CLOUDY    38  30  73 W6        30.25S
$$

WVZ006-170200-
Western West Virginia

CITY           SKY/WX    TMP DP  RH WIND       PRES   REMARKS
HUNTINGTON     CLOUDY    38  28  67 N5        30.25R
$$

WVZ015-170200-
West Central West Virginia

CITY           SKY/WX    TMP DP  RH WIND       PRES   REMARKS
CHARLESTON     MOCLDY    38  28  67 N7        30.24R
$$

WVZ031-170200-
North Central West Virginia

CITY           SKY/WX    TMP DP  RH WIND       PRES   REMARKS
CLARKSBURG     CLOUDY    38  29  70 W8        30.19R
MORGANTOWN     CLOUDY    38  29  70 W5        30.18R
$$

WVZ035-042-170200-
South Central West Virginia

CITY           SKY/WX    TMP DP  RH WIND       PRES   REMARKS
BECKLEY        MOCLDY    35  30  82 N14       30.13S WCI  26
BLUEFIELD      CLEAR     39  30  70 VRB3      30.12R
$$

WVZ045-170200-
Greenbrier Valley of West Virginia

CITY           SKY/WX    TMP DP  RH WIND       PRES   REMARKS
LEWISBURG      CLEAR     36  29  76 NW5       30.12S
$$

WVZ047-170200-
Northern Mountains of West Virginia

CITY           SKY/WX    TMP DP  RH WIND       PRES   REMARKS
ELKINS         CLOUDY    34  26  72 W9        30.17R WCI  27
$$

WVZ052-170200-
Eastern Panhandle of West Virginia

CITY           SKY/WX    TMP DP  RH WIND       PRES   REMARKS
MARTINSBURG    CLOUDY    43  29  57 NW17G23   30.09R
PETERSBURG     CLOUDY    39  29  65 NW5       30.13R
$$




USA.gov is the U.S. government's official web portal to all federal, state and local government web resources and services.